Regional Weather Roundup
Issued by NWS

Home | Current Version | Previous Version | Text Only | Print | Product List | Glossary Off
Versions: 1 2 3 4 5 6 7 8 9 10 11 12 13 14 15 16 17 18 19 20 21 22 23 24 25 26 27 28 29 30 31 32 33 34 35 36 37 38 39 40 41 42 43 44 45 46 47 48 49 50

000
ASUS43 KMPX 260410
RWRMN
WEATHER ROUNDUP FOR MINNESOTA
NATIONAL WEATHER SERVICE TWIN CITIES/CHANHASSEN MN
1000 PM CST TUE NOV 25 2014


NOTE: "FAIR" INDICATES FEW OR NO CLOUDS BELOW 12,000 FEET WITH NO
SIGNIFICANT WEATHER AND/OR OBSTRUCTIONS TO VISIBILITY. N/A MEANS
CURRENT SKY AND/OR WEATHER CONDITIONS ARE NOT AVAILABLE.

MNZ060>063-068>070-260500-
   Twin Cities Metro

CITY           SKY/WX    TMP DP  RH WIND       PRES   REMARKS
TWIN CITIES    CLOUDY    24  16  71 SE6       30.04S WCI  17
ST PAUL        CLOUDY    25  17  72 SE5       30.06S WCI  19
CRYSTAL        CLOUDY    26  16  65 SE9       30.02S WCI  17
BLAINE         CLOUDY    27  18  69 SE6       30.03  WCI  20
LAKEVILLE      CLOUDY    21  18  86 E6        30.02F WCI  14
EDEN PRAIRIE   CLOUDY    25  16  68 SE9       30.01S WCI  15
SOUTH ST PAUL  CLOUDY    26  17  70 SE5       30.05R WCI  20
LAKE ELMO      CLOUDY    27  19  74 SE3       30.05S
$$
MNZ001>005-007-008-013>017-022>024-027-028-260500-
   Northwest Minnesota

CITY           SKY/WX    TMP DP  RH WIND       PRES   REMARKS
BEMIDJI        CLOUDY    19  14  79 CALM      30.00R
HALLOCK        LGT SNOW  10   7  85 N14       30.13R WCI  -5
ROSEAU         LGT SNOW  14   9  79 N7        30.09R WCI   4
WARROAD        LGT SNOW  12   9  85 N6        30.08R WCI   3
THIEF RVR FALL CLOUDY    18  14  86 N14       30.05R WCI   4
CROOKSTON      LGT SNOW  18  14  86 N15       30.07R WCI   3
FOSSTON        LGT SNOW  18  12  79 E5        30.01R WCI  11
DETROIT LAKES  CLOUDY    21  14  73 E3        29.98R
MOORHEAD       LGT RAIN  23  23 100 NE8       30.00R WCI  14
PARK RAPIDS    CLOUDY    19   8  62 E5        29.98R WCI  12
MAHNOMEN       LGT SNOW  22  19  89 E5        29.99R WCI  16
$$
MNZ006-009>011-018-025>026-260500-
   North Central Minnesota

CITY           SKY/WX    TMP DP  RH WIND       PRES   REMARKS
BAUDETTE       FLURRIES  14  10  84 N7        30.05R WCI   4
FLAG ISLAND    LGT SNOW  12   9  85 N8        30.07R WCI   1
INTL FALLS     CLOUDY    16   9  74 N3        30.03R
WASKISH        CLOUDY    18  14  86 CALM      30.03R
BIG FORK       CLOUDY    19   9  63 CALM      30.02R
LONGVILLE      CLOUDY    18   9  68 CALM      30.02R
GRAND RAPIDS   CLOUDY    16   7  67 CALM      30.01R
CRANE LAKE     CLOUDY     9   7  92 CALM      30.06R
ORR            CLOUDY    14   9  79 CALM      30.00R
COOK           CLOUDY    16  10  79 CALM      30.02R
WALKER         CLOUDY    19   8  63 CALM      30.01R
$$
MNZ012-019>021-037-260500-
   Northeast Minnesota

CITY           SKY/WX    TMP DP  RH WIND       PRES   REMARKS
DULUTH         CLOUDY    18  10  71 SW3       30.02R
ELY            PTCLDY     3   1  92 CALM      30.01R
HIBBING        CLOUDY    19   6  57 S3        30.02R
EVELETH        CLOUDY    19   9  63 CALM      30.03R
DULUTH HARBOR  CLOUDY    21  12  68 CALM      30.09R
TWO HARBORS    CLOUDY    18   9  68 CALM      30.03R
SILVER BAY     PTCLDY    10   9  92 CALM      30.03R
GRAND MARAIS     N/A     20   5  52 N9        30.06R WCI   9
G MARAIS ARPRT PTCLDY     9   1  72 NW3       29.99R
$$
MNZ029>031-032-039>041-046>048-054>057-064-260500-
   West Central Minnesota

CITY           SKY/WX    TMP DP  RH WIND       PRES   REMARKS
FERGUS FALLS   CLOUDY    21  12  68 E9        29.98R WCI  11
WHEATON        CLOUDY    23  18  80 E9        29.92S WCI  13
MORRIS         CLOUDY    25  16  68 SE13      29.89S WCI  13
ALEXANDRIA     CLOUDY    20  13  74 E8        29.94R WCI  10
ELBOW LAKE       N/A     22  15  74 E9        29.92S WCI  12
WADENA         CLOUDY    18   9  68 NE6       29.97R WCI   9
GLENWOOD       CLOUDY    21  16  79 E9        29.93S WCI  11
APPLETON       CLOUDY    27  18  69 E10       29.90S WCI  17
BENSON         CLOUDY    25  18  74 SE10      29.91S WCI  15
ORTONVILLE     CLOUDY    25  18  74 SE12      29.88S WCI  14
MADISON        CLOUDY    30  25  80 SE12      29.88F WCI  21
WILLMAR        CLOUDY    27  18  69 SE13G20   29.94S WCI  16
$$
MNZ033>034-036-042>043-049>051-058-059-260500-
   Central Minnesota

CITY           SKY/WX    TMP DP  RH WIND       PRES   REMARKS
ST CLOUD       CLOUDY    23  13  65 SE8       29.99S WCI  14
SAUK CENTRE    CLOUDY    21  13  70 E3        29.95S
PAYNESVILLE    CLOUDY    20  13  73 E9        29.96R WCI  10
AITKIN         CLOUDY    19  10  68 CALM      30.01R
PINE RIVER     CLOUDY    19   9  63 E3        30.04R
BRAINERD       CLOUDY    17   7  64 CALM      30.01R
STAPLES        CLOUDY    16   9  73 CALM      29.99R
LONG PRAIRIE   CLOUDY    19  12  73 NE5       29.96R WCI  13
LITTLE FALLS   CLOUDY    19  12  73 E5        30.00R WCI  13
LITCHFIELD     CLOUDY    25  18  74 SE8       29.96F WCI  16
BUFFALO        CLOUDY    24  16  70 E7        30.01S WCI  16
MAPLE LAKE     CLOUDY    25  18  74 SE6       30.00S WCI  18
$$
MNZ037-044-045-052-053-260500-
   East Central Minnesota

CITY           SKY/WX    TMP DP  RH WIND       PRES   REMARKS
PRINCETON      CLOUDY    21  16  79 CALM      30.01R
MORA           CLOUDY    19  14  79 E3        30.05R
CAMBRIDGE      CLOUDY    25  14  63 E5        30.01S WCI  19
RUSH CITY      CLOUDY    21  15  80 CALM      30.04F
MOOSE LAKE     CLOUDY    19  14  79 CALM      30.03R
HINCKLEY       CLOUDY    21  16  79 CALM      30.05R
CLOQUET        CLOUDY    18  10  73 CALM      30.03R
MCGREGOR       CLOUDY    19  12  73 E3        30.03R
$$
MNZ071>073-080-081-089-090-097-098-260500-
   Southwest Minnesota

CITY           SKY/WX    TMP DP  RH WIND       PRES   REMARKS
MONTEVIDEO     CLOUDY    25  19  80 SE10      29.91S WCI  15
GRANITE FALLS  CLOUDY    27  19  70 SE10      29.91S WCI  17
CANBY          CLOUDY    30  23  74 SE8       29.87S WCI  23
MARSHALL       CLOUDY    30  19  64 SE12      29.88S WCI  21
REDWOOD FALLS  CLOUDY    27  18  69 SE13      29.92S WCI  16
OLIVIA         CLOUDY    28  19  69 SE9       29.93R WCI  20
PIPESTONE      LGT SNOW  30  25  80 S13G18    29.82S WCI  20
WINDOM         CLOUDY    28  18  64 SE12      29.90S WCI  18
WORTHINGTON    CLOUDY    30  19  64 S14       29.87S WCI  20
JACKSON        CLOUDY    30  18  59 SE12      29.91S WCI  21
TRACY          LGT SNOW  31  22  71 S13       29.88S WCI  21
SLAYTON        CLOUDY    29  22  74 SE12      29.87S WCI  19
$$
MNZ065>067-074>077-082>085-091>093-260500-
   South Central Minnesota

CITY           SKY/WX    TMP DP  RH WIND       PRES   REMARKS
MANKATO        CLOUDY    25  16  68 SE13      29.98F WCI  13
NEW ULM        MOCLDY    25  18  74 SE14      29.95S WCI  13
ST JAMES       CLOUDY    27  18  69 SE10      29.96S WCI  17
FAIRMONT       MOCLDY    27  16  63 SE14      29.95S WCI  15
GLENCOE        CLOUDY    26  19  74 E9        29.97F WCI  17
FARIBAULT      CLOUDY    25  18  74 SE7       30.02S WCI  17
OWATONNA       CLOUDY    21  16  79 SE10      30.00F WCI  10
WASECA         CLOUDY    21  14  73 SE9       30.01F WCI  11
ALBERT LEA     MOCLDY    21  18  86 SE8       30.00S WCI  12
$$
MNZ078>079-086>088-094>096-260500-
   Southeast Minnesota

CITY           SKY/WX    TMP DP  RH WIND       PRES   REMARKS
ROCHESTER      CLOUDY    18  13  80 S7        30.04R WCI   9
RED WING       CLOUDY    25  12  58 CALM      30.06R
STANTON        CLOUDY    25  17  73 S5        30.03S WCI  19
DODGE CENTER   CLOUDY    19  18  93 SE10      30.01S WCI   8
WINONA         CLOUDY    21  14  73 SE3       30.11R
AUSTIN         MOCLDY    19  16  86 S6        30.02S WCI  11
PRESTON        PTCLDY    14  10  87 CALM      30.05R
$$
ABBREVIATIONS USED IN REMARKS
   TC - TEMPERATURES IN CELSIUS
  WCI - WIND CHILL INDEX
   HX - HEAT INDEX
  VSB - VISIBILITY
$$


USA.gov is the U.S. government's official web portal to all federal, state and local government web resources and services.